Location: ????????
(56.0167°N, 38.0333°E)
Time: 11:12:21
(UTC+00:00)

Cosmos 2322 Rocket - Pass Details

Date: 19 May 2025
Orbit: 832 x 850 km, 71.0° (Epoch: 13 June)

Event Time Altitude Azimuth Distance (km) Brightness Sun altitude
Rises 21:06:41 0° 324° (NW) 3,420 6.4 -13.9°
Reaches altitude 10° 21:09:10 10° 321° (NW) 2,478 5.5 -13.9°
Maximum altitude 21:14:45 60° 243° (WSW) 961 2.4 -14.0°
Enters shadow 21:18:36 20° 169° (S) 1,843 3.3 -14.0°
